Time,TemperatureF,DewpointF,PressureIn,WindDirection,WindDirectionDegrees,WindSpeedMPH,WindSpeedGustMPH,Humidity,HourlyPrecipIn,Conditions,Clouds,dailyrainin,SoftwareType,DateUTC
2013-10-08 00:01:00,43.5,19.6,29.89,NNW,335,0.0,0.0,38,0.00,,---,0.00,VWS V14.01,2013-10-08 04:01:00,
2013-10-08 00:06:00,43.7,19.8,29.89,NNW,335,0.0,0.0,38,0.00,,---,0.00,VWS V14.01,2013-10-08 04:06:00,
2013-10-08 00:11:00,44.1,20.1,29.89,NNW,339,0.0,0.0,38,0.00,,---,0.00,VWS V14.01,2013-10-08 04:11:00,
2013-10-08 00:16:00,44.4,20.4,29.89,West,267,0.0,0.0,38,0.00,,---,0.00,VWS V14.01,2013-10-08 04:16:00,
2013-10-08 00:21:00,44.6,20.6,29.89,WNW,290,0.0,0.0,38,0.00,,---,0.00,VWS V14.01,2013-10-08 04:21:00,
2013-10-08 00:26:00,44.6,20.6,29.89,North,353,0.0,0.0,38,0.00,,---,0.00,VWS V14.01,2013-10-08 04:26:00,
2013-10-08 00:31:00,44.6,20.6,29.89,NW,325,0.0,0.0,38,0.00,,---,0.00,VWS V14.01,2013-10-08 04:31:00,
2013-10-08 00:36:00,44.6,20.6,29.89,NW,310,0.0,0.0,38,0.00,,---,0.00,VWS V14.01,2013-10-08 04:36:00,
2013-10-08 00:41:00,44.6,20.6,29.89,NW,310,0.0,0.0,38,0.00,,---,0.00,VWS V14.01,2013-10-08 04:41:00,
2013-10-08 00:46:00,44.6,20.6,29.89,NW,310,0.0,0.0,38,0.00,,---,0.00,VWS V14.01,2013-10-08 04:46:00,
2013-10-08 00:51:00,44.6,20.6,29.89,WNW,295,2.7,2.7,38,0.00,,---,0.00,VWS V14.01,2013-10-08 04:51:00,
2013-10-08 00:56:00,44.6,20.6,29.89,NW,324,0.0,0.0,38,0.00,,---,0.00,VWS V14.01,2013-10-08 04:56:00,
2013-10-08 01:01:00,44.4,20.4,29.89,NW,324,0.0,0.0,38,0.00,,---,0.00,VWS V14.01,2013-10-08 05:01:00,
2013-10-08 01:06:00,44.4,20.4,29.89,NW,324,0.0,0.0,38,0.00,,---,0.00,VWS V14.01,2013-10-08 05:06:00,
2013-10-08 01:11:00,44.4,20.4,29.89,NNE,14,0.0,0.0,38,0.00,,---,0.00,VWS V14.01,2013-10-08 05:11:00,
2013-10-08 01:16:00,44.4,20.4,29.89,NE,37,0.0,0.0,38,0.00,,---,0.00,VWS V14.01,2013-10-08 05:16:00,
2013-10-08 01:21:00,44.2,20.3,29.89,NE,37,0.0,0.0,38,0.00,,---,0.00,VWS V14.01,2013-10-08 05:21:00,
2013-10-08 01:26:00,44.2,20.3,29.89,SE,142,0.0,0.0,38,0.00,,---,0.00,VWS V14.01,2013-10-08 05:26:00,
2013-10-08 01:31:00,44.4,20.4,29.89,SE,142,0.0,0.0,38,0.00,,---,0.00,VWS V14.01,2013-10-08 05:31:00,
2013-10-08 01:36:00,44.2,20.3,29.89,SE,144,0.0,0.0,38,0.00,,---,0.00,VWS V14.01,2013-10-08 05:36:00,
2013-10-08 01:41:00,44.2,20.3,29.89,NW,325,0.0,0.0,38,0.00,,---,0.00,VWS V14.01,2013-10-08 05:41:00,
2013-10-08 01:46:00,44.2,20.3,29.92,NW,325,0.0,0.0,38,0.00,,---,0.00,VWS V14.01,2013-10-08 05:46:00,
2013-10-08 01:51:00,44.1,20.1,29.92,NW,325,0.0,0.0,38,0.00,,---,0.00,VWS V14.01,2013-10-08 05:51:00,
2013-10-08 01:56:00,43.9,19.9,29.92,NW,325,0.0,0.0,38,0.00,,---,0.00,VWS V14.01,2013-10-08 05:56:00,
2013-10-08 02:01:00,43.7,19.8,29.92,NW,325,0.0,0.0,38,0.00,,---,0.00,VWS V14.01,2013-10-08 06:01:00,
2013-10-08 02:06:00,43.9,19.9,29.92,WNW,302,0.0,0.0,38,0.00,,---,0.00,VWS V14.01,2013-10-08 06:06:00,
2013-10-08 02:11:00,43.9,19.9,29.92,WNW,302,0.0,0.0,38,0.00,,---,0.00,VWS V14.01,2013-10-08 06:11:00,
2013-10-08 02:16:00,43.7,19.8,29.92,WNW,302,0.0,0.0,38,0.00,,---,0.00,VWS V14.01,2013-10-08 06:16:00,
2013-10-08 02:21:00,43.7,19.8,29.92,WNW,302,0.0,0.0,38,0.00,,---,0.00,VWS V14.01,2013-10-08 06:21:00,
2013-10-08 02:26:00,43.5,19.6,29.92,WNW,302,0.0,0.0,38,0.00,,---,0.00,VWS V14.01,2013-10-08 06:26:00,
2013-10-08 02:31:00,43.5,19.6,29.92,WNW,302,0.0,0.0,38,0.00,,---,0.00,VWS V14.01,2013-10-08 06:31:00,
2013-10-08 02:35:00,43.3,19.5,29.92,WNW,302,0.0,0.0,38,0.00,,---,0.00,VWS V14.01,2013-10-08 06:35:00,
2013-10-08 02:41:00,43.3,19.5,29.92,NW,323,0.0,0.0,38,0.00,,---,0.00,VWS V14.01,2013-10-08 06:41:00,
2013-10-08 02:46:00,43.2,19.3,29.92,West,270,0.0,0.0,38,0.00,,---,0.00,VWS V14.01,2013-10-08 06:46:00,
2013-10-08 02:51:00,43.0,19.1,29.92,West,270,0.0,0.0,38,0.00,,---,0.00,VWS V14.01,2013-10-08 06:51:00,
2013-10-08 02:56:00,43.0,19.1,29.92,West,270,0.0,0.0,38,0.00,,---,0.00,VWS V14.01,2013-10-08 06:56:00,
2013-10-08 03:01:00,43.0,19.1,29.92,West,270,0.0,0.0,38,0.00,,---,0.00,VWS V14.01,2013-10-08 07:01:00,
2013-10-08 03:05:00,42.8,19.0,29.92,West,270,0.0,0.0,38,0.00,,---,0.00,VWS V14.01,2013-10-08 07:05:00,
2013-10-08 03:11:00,42.8,19.0,29.92,West,270,0.0,0.0,38,0.00,,---,0.00,VWS V14.01,2013-10-08 07:11:00,
2013-10-08 03:16:00,42.6,19.4,29.92,West,270,0.0,0.0,39,0.00,,---,0.00,VWS V14.01,2013-10-08 07:16:00,
2013-10-08 03:21:00,42.8,19.0,29.92,West,270,0.0,0.0,38,0.00,,---,0.00,VWS V14.01,2013-10-08 07:21:00,
2013-10-08 03:25:00,42.3,19.1,29.92,West,270,0.0,0.0,39,0.00,,---,0.00,VWS V14.01,2013-10-08 07:25:00,
2013-10-08 03:30:00,41.9,18.8,29.92,West,270,0.0,0.0,39,0.00,,---,0.00,VWS V14.01,2013-10-08 07:30:00,
2013-10-08 03:35:00,41.7,18.6,29.92,West,270,0.0,0.0,39,0.00,,---,0.00,VWS V14.01,2013-10-08 07:35:00,
2013-10-08 03:40:00,41.7,18.6,29.92,West,270,0.0,0.0,39,0.00,,---,0.00,VWS V14.01,2013-10-08 07:40:00,
2013-10-08 03:45:00,41.4,18.3,29.92,West,270,0.0,0.0,39,0.00,,---,0.00,VWS V14.01,2013-10-08 07:45:00,
2013-10-08 03:50:00,41.5,18.4,29.92,West,270,0.0,0.0,39,0.00,,---,0.00,VWS V14.01,2013-10-08 07:50:00,
2013-10-08 03:55:00,41.7,18.6,29.92,West,270,0.0,0.0,39,0.00,,---,0.00,VWS V14.01,2013-10-08 07:55:00,
2013-10-08 04:00:00,41.9,18.8,29.92,West,270,0.0,0.0,39,0.00,,---,0.00,VWS V14.01,2013-10-08 08:00:00,
2013-10-08 04:05:00,42.3,19.1,29.92,West,270,0.0,0.0,39,0.00,,---,0.00,VWS V14.01,2013-10-08 08:05:00,
2013-10-08 04:10:00,42.1,18.9,29.92,West,270,0.0,0.0,39,0.00,,---,0.00,VWS V14.01,2013-10-08 08:10:00,
2013-10-08 04:15:00,42.1,18.9,29.92,West,270,0.0,0.0,39,0.00,,---,0.00,VWS V14.01,2013-10-08 08:15:00,
2013-10-08 04:20:00,41.7,18.6,29.92,West,270,0.0,0.0,39,0.00,,---,0.00,VWS V14.01,2013-10-08 08:20:00,
2013-10-08 04:25:00,41.5,18.4,29.92,West,270,0.0,0.0,39,0.00,,---,0.00,VWS V14.01,2013-10-08 08:25:00,
2013-10-08 04:30:00,41.5,18.4,29.95,West,270,0.0,0.0,39,0.00,,---,0.00,VWS V14.01,2013-10-08 08:30:00,
2013-10-08 04:35:00,41.4,18.3,29.95,West,270,0.0,0.0,39,0.00,,---,0.00,VWS V14.01,2013-10-08 08:35:00,
2013-10-08 04:40:00,41.4,18.3,29.95,West,270,0.0,0.0,39,0.00,,---,0.00,VWS V14.01,2013-10-08 08:40:00,
2013-10-08 04:45:00,41.5,18.4,29.95,West,270,0.0,0.0,39,0.00,,---,0.00,VWS V14.01,2013-10-08 08:45:00,
2013-10-08 04:50:00,41.5,18.4,29.95,West,270,0.0,0.0,39,0.00,,---,0.00,VWS V14.01,2013-10-08 08:50:00,
2013-10-08 04:55:00,41.5,18.4,29.95,West,270,0.0,0.0,39,0.00,,---,0.00,VWS V14.01,2013-10-08 08:55:00,
2013-10-08 05:00:00,41.7,18.6,29.95,West,270,0.0,0.0,39,0.00,,---,0.00,VWS V14.01,2013-10-08 09:00:00,
2013-10-08 05:05:00,42.1,18.9,29.95,West,270,0.0,0.0,39,0.00,,---,0.00,VWS V14.01,2013-10-08 09:05:00,
2013-10-08 05:10:00,41.9,18.8,29.95,West,270,0.0,0.0,39,0.00,,---,0.00,VWS V14.01,2013-10-08 09:10:00,
2013-10-08 05:15:00,41.7,18.6,29.95,West,270,0.0,0.0,39,0.00,,---,0.00,VWS V14.01,2013-10-08 09:15:00,
2013-10-08 05:20:00,41.7,18.6,29.95,West,270,0.0,0.0,39,0.00,,---,0.00,VWS V14.01,2013-10-08 09:20:00,
2013-10-08 05:25:00,41.7,18.6,29.95,West,270,0.0,0.0,39,0.00,,---,0.00,VWS V14.01,2013-10-08 09:25:00,
2013-10-08 05:30:00,41.5,18.4,29.95,West,270,0.0,0.0,39,0.00,,---,0.00,VWS V14.01,2013-10-08 09:30:00,
2013-10-08 05:35:00,41.5,18.4,29.95,West,270,0.0,0.0,39,0.00,,---,0.00,VWS V14.01,2013-10-08 09:35:00,
2013-10-08 05:40:00,41.2,18.1,29.95,West,270,0.0,0.0,39,0.00,,---,0.00,VWS V14.01,2013-10-08 09:40:00,
2013-10-08 05:45:00,41.0,18.0,29.95,West,270,0.0,0.0,39,0.00,,---,0.00,VWS V14.01,2013-10-08 09:45:00,
2013-10-08 05:50:00,41.0,18.0,29.95,West,270,0.0,0.0,39,0.00,,---,0.00,VWS V14.01,2013-10-08 09:50:00,
2013-10-08 05:55:00,41.0,18.0,29.95,West,270,0.0,0.0,39,0.00,,---,0.00,VWS V14.01,2013-10-08 09:55:00,
2013-10-08 06:00:00,41.0,18.0,29.95,West,270,0.0,0.0,39,0.00,,---,0.00,VWS V14.01,2013-10-08 10:00:00,
2013-10-08 06:05:00,41.2,18.1,29.95,West,270,0.0,0.0,39,0.00,,---,0.00,VWS V14.01,2013-10-08 10:05:00,
2013-10-08 06:10:00,41.2,18.1,29.95,West,270,0.0,0.0,39,0.00,,---,0.00,VWS V14.01,2013-10-08 10:10:00,
2013-10-08 06:15:00,41.0,18.0,29.98,West,270,0.0,0.0,39,0.00,,---,0.00,VWS V14.01,2013-10-08 10:15:00,
2013-10-08 06:20:00,40.8,17.8,29.98,West,270,0.0,0.0,39,0.00,,---,0.00,VWS V14.01,2013-10-08 10:20:00,
2013-10-08 06:25:00,40.8,17.8,29.98,West,270,0.0,0.0,39,0.00,,---,0.00,VWS V14.01,2013-10-08 10:25:00,
2013-10-08 06:30:00,41.0,18.0,29.98,West,270,0.0,0.0,39,0.00,,---,0.00,VWS V14.01,2013-10-08 10:30:00,
2013-10-08 06:35:00,40.8,17.8,29.98,West,270,0.0,0.0,39,0.00,,---,0.00,VWS V14.01,2013-10-08 10:35:00,
2013-10-08 06:40:00,40.8,17.8,29.98,West,270,0.0,0.0,39,0.00,,---,0.00,VWS V14.01,2013-10-08 10:40:00,
2013-10-08 06:45:00,40.8,17.8,29.98,West,270,0.0,0.0,39,0.00,,---,0.00,VWS V14.01,2013-10-08 10:45:00,
2013-10-08 06:50:00,40.6,17.6,29.98,West,270,0.0,0.0,39,0.00,,---,0.00,VWS V14.01,2013-10-08 10:50:00,
2013-10-08 06:55:00,40.6,17.6,29.98,West,270,0.0,0.0,39,0.00,,---,0.00,VWS V14.01,2013-10-08 10:55:00,
2013-10-08 07:00:00,40.5,17.5,29.98,West,270,0.0,0.0,39,0.00,,---,0.00,VWS V14.01,2013-10-08 11:00:00,
2013-10-08 07:05:00,40.6,17.6,29.98,West,270,0.0,0.0,39,0.00,,---,0.00,VWS V14.01,2013-10-08 11:05:00,
2013-10-08 07:10:00,40.5,17.5,29.98,West,270,0.0,0.0,39,0.00,,---,0.00,VWS V14.01,2013-10-08 11:10:00,
2013-10-08 07:15:00,40.5,17.5,29.98,West,270,0.0,0.0,39,0.00,,---,0.00,VWS V14.01,2013-10-08 11:15:00,
2013-10-08 07:20:00,40.6,17.6,29.98,West,270,0.0,0.0,39,0.00,,---,0.00,VWS V14.01,2013-10-08 11:20:00,
2013-10-08 07:25:00,40.6,17.6,29.98,West,270,0.0,0.0,39,0.00,,---,0.00,VWS V14.01,2013-10-08 11:25:00,
2013-10-08 07:30:00,41.0,18.0,30.01,West,270,0.0,0.0,39,0.00,,---,0.00,VWS V14.01,2013-10-08 11:30:00,
2013-10-08 07:35:00,41.2,18.1,30.01,West,270,0.0,0.0,39,0.00,,---,0.00,VWS V14.01,2013-10-08 11:35:00,
2013-10-08 07:40:00,41.2,18.1,30.01,West,270,0.0,0.0,39,0.00,,---,0.00,VWS V14.01,2013-10-08 11:40:00,
2013-10-08 07:45:00,41.2,18.1,30.01,West,270,0.0,0.0,39,0.00,,---,0.00,VWS V14.01,2013-10-08 11:45:00,
2013-10-08 07:50:00,41.2,18.1,30.01,West,270,0.0,0.0,39,0.00,,---,0.00,VWS V14.01,2013-10-08 11:50:00,
2013-10-08 07:55:00,41.0,18.0,30.01,West,270,0.0,0.0,39,0.00,,---,0.00,VWS V14.01,2013-10-08 11:55:00,
2013-10-08 08:00:00,41.2,18.1,30.01,West,270,0.0,0.0,39,0.00,,---,0.00,VWS V14.01,2013-10-08 12:00:00,
2013-10-08 08:05:00,41.2,18.1,30.01,West,270,0.0,0.0,39,0.00,,---,0.00,VWS V14.01,2013-10-08 12:05:00,
2013-10-08 08:10:00,41.4,18.3,30.01,West,270,0.0,0.0,39,0.00,,---,0.00,VWS V14.01,2013-10-08 12:10:00,
2013-10-08 08:15:00,41.5,18.4,30.04,West,270,0.0,0.0,39,0.00,,---,0.00,VWS V14.01,2013-10-08 12:15:00,
2013-10-08 08:20:00,41.5,18.4,30.04,West,270,0.0,0.0,39,0.00,,---,0.00,VWS V14.01,2013-10-08 12:20:00,
2013-10-08 08:25:00,41.5,18.4,30.04,West,270,0.0,0.0,39,0.00,,---,0.00,VWS V14.01,2013-10-08 12:25:00,
2013-10-08 08:30:00,41.7,18.6,30.04,West,270,0.0,0.0,39,0.00,,---,0.00,VWS V14.01,2013-10-08 12:30:00,
2013-10-08 08:35:00,41.9,18.8,30.04,West,270,0.0,0.0,39,0.00,,---,0.00,VWS V14.01,2013-10-08 12:35:00,
2013-10-08 08:40:00,42.3,19.1,30.04,West,270,0.0,0.0,39,0.00,,---,0.00,VWS V14.01,2013-10-08 12:40:00,
2013-10-08 08:45:00,42.4,19.2,30.04,West,270,0.0,0.0,39,0.00,,---,0.00,VWS V14.01,2013-10-08 12:45:00,
2013-10-08 08:50:00,42.8,19.0,30.04,West,270,0.0,0.0,38,0.00,,---,0.00,VWS V14.01,2013-10-08 12:50:00,
2013-10-08 08:55:00,43.0,19.1,30.04,West,270,0.0,0.0,38,0.00,,---,0.00,VWS V14.01,2013-10-08 12:55:00,
2013-10-08 09:00:00,43.3,19.5,30.04,West,270,0.0,0.0,38,0.00,,---,0.00,VWS V14.01,2013-10-08 13:00:00,
2013-10-08 09:05:00,43.7,19.8,30.04,West,270,0.0,0.0,38,0.00,,---,0.00,VWS V14.01,2013-10-08 13:05:00,
2013-10-08 09:10:00,44.1,20.1,30.04,West,270,0.0,0.0,38,0.00,,---,0.00,VWS V14.01,2013-10-08 13:10:00,
2013-10-08 09:15:00,44.4,20.4,30.04,West,270,0.0,0.0,38,0.00,,---,0.00,VWS V14.01,2013-10-08 13:15:00,
2013-10-08 09:20:00,44.8,20.7,30.04,West,270,0.0,0.0,38,0.00,,---,0.00,VWS V14.01,2013-10-08 13:20:00,
2013-10-08 09:25:00,45.1,21.1,30.04,West,270,0.0,0.0,38,0.00,,---,0.00,VWS V14.01,2013-10-08 13:25:00,
2013-10-08 09:30:00,45.5,21.4,30.04,West,270,0.0,0.0,38,0.00,,---,0.00,VWS V14.01,2013-10-08 13:30:00,
2013-10-08 09:35:00,45.9,21.7,30.04,West,270,0.0,0.0,38,0.00,,---,0.00,VWS V14.01,2013-10-08 13:35:00,
2013-10-08 09:40:00,46.2,22.0,30.04,West,270,0.0,0.0,38,0.00,,---,0.00,VWS V14.01,2013-10-08 13:40:00,
2013-10-08 09:45:00,46.4,22.2,30.04,West,270,0.0,0.0,38,0.00,,---,0.00,VWS V14.01,2013-10-08 13:45:00,
2013-10-08 09:50:00,46.6,22.4,30.04,West,270,0.0,0.0,38,0.00,,---,0.00,VWS V14.01,2013-10-08 13:50:00,
2013-10-08 09:55:00,46.8,22.5,30.04,WSW,239,0.0,0.0,38,0.00,,---,0.00,VWS V14.01,2013-10-08 13:55:00,
2013-10-08 10:00:00,47.1,22.8,30.04,WSW,239,0.0,0.0,38,0.00,,---,0.00,VWS V14.01,2013-10-08 14:00:00,
2013-10-08 10:05:00,47.3,23.0,30.04,WSW,239,0.0,0.0,38,0.00,,---,0.00,VWS V14.01,2013-10-08 14:05:00,
2013-10-08 10:10:00,47.5,23.2,30.04,NNE,22,0.0,0.0,38,0.00,,---,0.00,VWS V14.01,2013-10-08 14:10:00,
2013-10-08 10:15:00,47.8,23.5,30.04,WNW,303,0.0,0.0,38,0.00,,---,0.00,VWS V14.01,2013-10-08 14:15:00,
2013-10-08 10:20:00,48.2,23.2,30.04,WNW,303,0.0,0.0,37,0.00,,---,0.00,VWS V14.01,2013-10-08 14:20:00,
2013-10-08 10:25:00,48.6,23.5,30.04,West,272,0.0,2.2,37,0.00,,---,0.00,VWS V14.01,2013-10-08 14:25:00,
2013-10-08 10:30:00,48.9,23.8,30.04,West,272,0.0,0.0,37,0.00,,---,0.00,VWS V14.01,2013-10-08 14:30:00,
2013-10-08 10:35:00,49.3,24.1,30.04,West,272,0.0,0.0,37,0.00,,---,0.00,VWS V14.01,2013-10-08 14:35:00,
2013-10-08 10:40:00,49.5,24.3,30.04,WNW,290,2.2,2.7,37,0.00,,---,0.00,VWS V14.01,2013-10-08 14:40:00,
2013-10-08 10:45:00,49.3,24.1,30.07,NE,52,0.0,0.0,37,0.00,,---,0.00,VWS V14.01,2013-10-08 14:45:00,
2013-10-08 10:50:00,50.0,24.8,30.07,NNW,344,2.7,3.1,37,0.00,,---,0.00,VWS V14.01,2013-10-08 14:50:00,
2013-10-08 10:55:00,50.5,25.2,30.07,WNW,302,0.0,2.7,37,0.00,,---,0.00,VWS V14.01,2013-10-08 14:55:00,
2013-10-08 11:00:00,50.9,25.6,30.07,NE,45,2.2,3.1,37,0.00,,---,0.00,VWS V14.01,2013-10-08 15:00:00,
2013-10-08 11:05:00,51.1,25.7,30.07,NE,34,0.0,0.0,37,0.00,,---,0.00,VWS V14.01,2013-10-08 15:05:00,
2013-10-08 11:10:00,51.4,26.0,30.07,WNW,292,0.0,0.0,37,0.00,,---,0.00,VWS V14.01,2013-10-08 15:10:00,
2013-10-08 11:15:00,51.8,25.7,30.07,SSW,211,0.0,0.0,36,0.00,,---,0.00,VWS V14.01,2013-10-08 15:15:00,
2013-10-08 11:20:00,52.3,26.2,30.07,North,0,0.0,2.7,36,0.00,,---,0.00,VWS V14.01,2013-10-08 15:20:00,
2013-10-08 11:25:00,52.5,26.4,30.07,NE,51,0.0,0.0,36,0.00,,---,0.00,VWS V14.01,2013-10-08 15:25:00,
2013-10-08 11:30:00,52.7,26.5,30.07,West,270,0.0,0.0,36,0.00,,---,0.00,VWS V14.01,2013-10-08 15:30:00,
2013-10-08 11:35:00,53.1,26.8,30.07,North,10,0.0,0.0,36,0.00,,---,0.00,VWS V14.01,2013-10-08 15:35:00,
2013-10-08 11:40:00,53.4,27.1,30.07,WSW,246,0.0,0.0,36,0.00,,---,0.00,VWS V14.01,2013-10-08 15:40:00,
2013-10-08 11:45:00,54.0,27.6,30.04,West,266,2.2,2.7,36,0.00,,---,0.00,VWS V14.01,2013-10-08 15:45:00,
2013-10-08 11:50:00,54.5,28.1,30.04,NNE,32,2.2,3.6,36,0.00,,---,0.00,VWS V14.01,2013-10-08 15:50:00,
2013-10-08 11:55:00,54.5,28.1,30.04,NE,44,2.7,3.6,36,0.00,,---,0.00,VWS V14.01,2013-10-08 15:55:00,
2013-10-08 12:00:00,54.7,28.3,30.04,WSW,253,0.0,0.0,36,0.00,,---,0.00,VWS V14.01,2013-10-08 16:00:00,
2013-10-08 12:05:00,54.5,28.1,30.04,NE,46,0.0,0.0,36,0.00,,---,0.00,VWS V14.01,2013-10-08 16:05:00,
2013-10-08 12:10:00,54.7,28.3,30.04,NE,36,3.1,3.1,36,0.00,,---,0.00,VWS V14.01,2013-10-08 16:10:00,
2013-10-08 12:15:00,55.0,28.6,30.04,NW,309,0.0,0.0,36,0.00,,---,0.00,VWS V14.01,2013-10-08 16:15:00,
2013-10-08 12:20:00,55.6,28.4,30.04,East,82,3.1,3.1,35,0.00,,---,0.00,VWS V14.01,2013-10-08 16:20:00,
2013-10-08 12:25:00,55.9,28.7,30.04,SW,234,0.0,0.0,35,0.00,,---,0.00,VWS V14.01,2013-10-08 16:25:00,
2013-10-08 12:30:00,55.8,28.5,30.04,NW,309,0.0,0.0,35,0.00,,---,0.00,VWS V14.01,2013-10-08 16:30:00,
2013-10-08 12:35:00,55.9,28.7,30.04,WNW,296,0.0,0.0,35,0.00,,---,0.00,VWS V14.01,2013-10-08 16:35:00,
2013-10-08 12:40:00,56.1,28.9,30.04,ESE,111,0.0,0.0,35,0.00,,---,0.00,VWS V14.01,2013-10-08 16:40:00,
2013-10-08 12:45:00,56.8,29.5,30.04,West,271,4.0,4.0,35,0.00,,---,0.00,VWS V14.01,2013-10-08 16:45:00,
2013-10-08 12:50:00,57.6,30.1,30.04,SE,136,2.2,2.7,35,0.00,,---,0.00,VWS V14.01,2013-10-08 16:50:00,
2013-10-08 12:55:00,57.7,30.3,30.04,NNE,12,0.0,0.0,35,0.00,,---,0.00,VWS V14.01,2013-10-08 16:55:00,
2013-10-08 13:00:00,57.9,30.5,30.04,WNW,294,0.0,0.0,35,0.00,,---,0.00,VWS V14.01,2013-10-08 17:00:00,
2013-10-08 13:05:00,57.9,30.5,30.04,NE,48,0.0,0.0,35,0.00,,---,0.00,VWS V14.01,2013-10-08 17:05:00,
2013-10-08 13:10:00,58.1,30.6,30.04,WNW,292,2.7,2.7,35,0.00,,---,0.00,VWS V14.01,2013-10-08 17:10:00,
2013-10-08 13:15:00,58.5,30.9,30.04,West,268,0.0,0.0,35,0.00,,---,0.00,VWS V14.01,2013-10-08 17:15:00,
2013-10-08 13:20:00,58.6,31.1,30.04,ENE,62,0.0,0.0,35,0.00,,---,0.00,VWS V14.01,2013-10-08 17:20:00,
2013-10-08 13:25:00,59.2,30.9,30.04,West,272,0.0,0.0,34,0.00,,---,0.00,VWS V14.01,2013-10-08 17:25:00,
2013-10-08 13:30:00,59.4,31.0,30.04,NE,50,2.7,2.7,34,0.00,,---,0.00,VWS V14.01,2013-10-08 17:30:00,
2013-10-08 13:35:00,59.5,31.2,30.04,NE,50,0.0,0.0,34,0.00,,---,0.00,VWS V14.01,2013-10-08 17:35:00,
2013-10-08 13:40:00,59.7,31.3,30.04,NNW,327,0.0,2.2,34,0.00,,---,0.00,VWS V14.01,2013-10-08 17:40:00,
2013-10-08 13:45:00,60.4,32.0,30.04,WNW,286,0.0,0.0,34,0.00,,---,0.00,VWS V14.01,2013-10-08 17:45:00,
2013-10-08 13:50:00,60.8,32.3,30.04,WNW,303,0.0,0.0,34,0.00,,---,0.00,VWS V14.01,2013-10-08 17:50:00,
2013-10-08 13:55:00,61.2,32.6,30.04,North,11,0.0,0.0,34,0.00,,---,0.00,VWS V14.01,2013-10-08 17:55:00,
2013-10-08 14:00:00,61.5,32.9,30.04,SW,235,0.0,0.0,34,0.00,,---,0.00,VWS V14.01,2013-10-08 18:00:00,
2013-10-08 14:05:00,61.9,33.2,30.04,WSW,248,0.0,0.0,34,0.00,,---,0.00,VWS V14.01,2013-10-08 18:05:00,
2013-10-08 14:10:00,62.6,33.9,30.04,WSW,248,0.0,0.0,34,0.00,,---,0.00,VWS V14.01,2013-10-08 18:10:00,
2013-10-08 14:15:00,63.0,34.2,30.04,WNW,291,0.0,0.0,34,0.00,,---,0.00,VWS V14.01,2013-10-08 18:15:00,
2013-10-08 14:20:00,63.5,34.7,30.04,WNW,291,0.0,0.0,34,0.00,,---,0.00,VWS V14.01,2013-10-08 18:20:00,
2013-10-08 14:25:00,63.9,35.0,30.04,WSW,241,0.0,0.0,34,0.00,,---,0.00,VWS V14.01,2013-10-08 18:25:00,
2013-10-08 14:30:00,63.7,34.8,30.01,NNW,332,3.6,4.5,34,0.00,,---,0.00,VWS V14.01,2013-10-08 18:30:00,
2013-10-08 14:35:00,64.2,35.3,30.01,NNW,346,0.0,0.0,34,0.00,,---,0.00,VWS V14.01,2013-10-08 18:35:00,
2013-10-08 14:40:00,64.8,35.0,30.01,NW,325,0.0,0.0,33,0.00,,---,0.00,VWS V14.01,2013-10-08 18:40:00,
2013-10-08 14:45:00,65.3,35.5,30.01,North,0,0.0,0.0,33,0.00,,---,0.00,VWS V14.01,2013-10-08 18:45:00,
2013-10-08 14:50:00,64.9,35.2,30.01,NW,325,0.0,0.0,33,0.00,,---,0.00,VWS V14.01,2013-10-08 18:50:00,
2013-10-08 14:55:00,64.8,35.0,30.01,North,349,0.0,0.0,33,0.00,,---,0.00,VWS V14.01,2013-10-08 18:55:00,
2013-10-08 15:00:00,65.5,35.6,30.01,NW,313,0.0,2.2,33,0.00,,---,0.00,VWS V14.01,2013-10-08 19:00:00,
2013-10-08 15:05:00,66.4,36.4,30.01,NNE,26,0.0,0.0,33,0.00,,---,0.00,VWS V14.01,2013-10-08 19:05:00,
2013-10-08 15:10:00,66.9,36.9,30.01,NNE,27,0.0,0.0,33,0.00,,---,0.00,VWS V14.01,2013-10-08 19:10:00,
2013-10-08 15:15:00,67.1,37.1,30.01,West,259,0.0,0.0,33,0.00,,---,0.00,VWS V14.01,2013-10-08 19:15:00,
2013-10-08 15:20:00,66.7,36.8,30.01,West,261,0.0,0.0,33,0.00,,---,0.00,VWS V14.01,2013-10-08 19:20:00,
2013-10-08 15:25:00,66.6,36.6,30.01,North,357,0.0,0.0,33,0.00,,---,0.00,VWS V14.01,2013-10-08 19:25:00,
2013-10-08 15:30:00,66.4,36.4,30.01,WNW,296,2.7,3.1,33,0.00,,---,0.00,VWS V14.01,2013-10-08 19:30:00,
2013-10-08 15:35:00,66.0,36.1,30.01,NE,39,0.0,0.0,33,0.00,,---,0.00,VWS V14.01,2013-10-08 19:35:00,
2013-10-08 15:40:00,65.7,35.8,30.01,NE,48,0.0,0.0,33,0.00,,---,0.00,VWS V14.01,2013-10-08 19:40:00,
2013-10-08 15:45:00,65.8,36.0,30.01,NE,48,0.0,0.0,33,0.00,,---,0.00,VWS V14.01,2013-10-08 19:45:00,
2013-10-08 15:50:00,65.5,35.6,30.01,WNW,286,0.0,0.0,33,0.00,,---,0.00,VWS V14.01,2013-10-08 19:50:00,
2013-10-08 15:55:00,65.3,35.5,30.01,NE,49,0.0,0.0,33,0.00,,---,0.00,VWS V14.01,2013-10-08 19:55:00,
2013-10-08 16:00:00,65.5,35.6,30.01,NE,35,0.0,0.0,33,0.00,,---,0.00,VWS V14.01,2013-10-08 20:00:00,
2013-10-08 16:05:00,68.4,37.4,30.01,NE,47,0.0,0.0,32,0.00,,---,0.00,VWS V14.01,2013-10-08 20:05:00,
2013-10-08 16:10:00,69.8,38.6,30.01,NNE,30,0.0,0.0,32,0.00,,---,0.00,VWS V14.01,2013-10-08 20:10:00,
2013-10-08 16:15:00,75.0,42.4,30.01,NNW,327,0.0,0.0,31,0.00,,---,0.00,VWS V14.01,2013-10-08 20:15:00,
2013-10-08 16:20:00,75.9,43.1,30.01,East,101,0.0,0.0,31,0.00,,---,0.00,VWS V14.01,2013-10-08 20:20:00,
2013-10-08 16:25:00,73.6,41.1,30.01,West,270,0.0,0.0,31,0.00,,---,0.00,VWS V14.01,2013-10-08 20:25:00,
2013-10-08 16:30:00,69.6,38.5,30.01,West,275,0.0,0.0,32,0.00,,---,0.00,VWS V14.01,2013-10-08 20:30:00,
2013-10-08 16:35:00,67.3,37.2,30.01,West,275,0.0,0.0,33,0.00,,---,0.00,VWS V14.01,2013-10-08 20:35:00,
2013-10-08 16:40:00,65.5,35.6,30.01,ENE,59,0.0,0.0,33,0.00,,---,0.00,VWS V14.01,2013-10-08 20:40:00,
2013-10-08 16:45:00,64.4,34.7,30.01,North,353,0.0,0.0,33,0.00,,---,0.00,VWS V14.01,2013-10-08 20:45:00,
2013-10-08 16:50:00,63.1,34.3,30.01,WNW,291,0.0,0.0,34,0.00,,---,0.00,VWS V14.01,2013-10-08 20:50:00,
2013-10-08 16:55:00,62.8,34.0,30.01,WNW,292,0.0,0.0,34,0.00,,---,0.00,VWS V14.01,2013-10-08 20:55:00,
2013-10-08 17:00:00,62.6,33.9,30.01,NW,318,0.0,0.0,34,0.00,,---,0.00,VWS V14.01,2013-10-08 21:00:00,
2013-10-08 17:05:00,62.2,33.5,30.01,NE,41,0.0,0.0,34,0.00,,---,0.00,VWS V14.01,2013-10-08 21:05:00,
2013-10-08 17:10:00,62.1,33.4,30.01,NE,41,0.0,0.0,34,0.00,,---,0.00,VWS V14.01,2013-10-08 21:10:00,
2013-10-08 17:15:00,61.7,33.1,30.01,NE,41,0.0,0.0,34,0.00,,---,0.00,VWS V14.01,2013-10-08 21:15:00,
2013-10-08 17:20:00,61.5,32.9,30.01,NE,41,0.0,0.0,34,0.00,,---,0.00,VWS V14.01,2013-10-08 21:20:00,
2013-10-08 17:25:00,61.2,32.6,30.01,NNE,33,0.0,0.0,34,0.00,,---,0.00,VWS V14.01,2013-10-08 21:25:00,
2013-10-08 17:30:00,60.8,32.3,30.01,North,357,0.0,0.0,34,0.00,,---,0.00,VWS V14.01,2013-10-08 21:30:00,
2013-10-08 17:35:00,60.4,32.0,30.01,NNE,18,0.0,0.0,34,0.00,,---,0.00,VWS V14.01,2013-10-08 21:35:00,
2013-10-08 17:40:00,60.3,31.8,30.01,NNE,14,0.0,0.0,34,0.00,,---,0.00,VWS V14.01,2013-10-08 21:40:00,
2013-10-08 17:45:00,59.9,31.5,30.01,NNE,14,0.0,0.0,34,0.00,,---,0.00,VWS V14.01,2013-10-08 21:45:00,
2013-10-08 17:50:00,59.5,31.2,30.01,NNE,14,0.0,0.0,34,0.00,,---,0.00,VWS V14.01,2013-10-08 21:50:00,
2013-10-08 17:55:00,59.2,30.9,30.01,NNE,14,0.0,0.0,34,0.00,,---,0.00,VWS V14.01,2013-10-08 21:55:00,
2013-10-08 18:00:00,58.8,31.2,30.01,NNE,14,0.0,0.0,35,0.00,,---,0.00,VWS V14.01,2013-10-08 22:00:00,
2013-10-08 18:05:00,58.5,30.9,30.01,NNE,14,0.0,0.0,35,0.00,,---,0.00,VWS V14.01,2013-10-08 22:05:00,
2013-10-08 18:10:00,58.1,30.6,30.01,NNE,14,0.0,0.0,35,0.00,,---,0.00,VWS V14.01,2013-10-08 22:10:00,
2013-10-08 18:15:00,57.6,30.1,30.01,NNE,14,0.0,0.0,35,0.00,,---,0.00,VWS V14.01,2013-10-08 22:15:00,
2013-10-08 18:20:00,57.2,29.8,30.01,NNE,14,0.0,0.0,35,0.00,,---,0.00,VWS V14.01,2013-10-08 22:20:00,
2013-10-08 18:25:00,56.8,29.5,30.01,NNE,14,0.0,0.0,35,0.00,,---,0.00,VWS V14.01,2013-10-08 22:25:00,
2013-10-08 18:30:00,56.3,29.0,30.01,NNE,14,0.0,0.0,35,0.00,,---,0.00,VWS V14.01,2013-10-08 22:30:00,
2013-10-08 18:35:00,55.9,28.7,30.01,NNE,14,0.0,0.0,35,0.00,,---,0.00,VWS V14.01,2013-10-08 22:35:00,
2013-10-08 18:40:00,55.2,28.8,30.01,NNE,14,0.0,0.0,36,0.00,,---,0.00,VWS V14.01,2013-10-08 22:40:00,
2013-10-08 18:45:00,54.5,28.1,30.01,NNE,14,0.0,0.0,36,0.00,,---,0.00,VWS V14.01,2013-10-08 22:45:00,
2013-10-08 18:50:00,54.0,27.6,30.01,NNE,14,0.0,0.0,36,0.00,,---,0.00,VWS V14.01,2013-10-08 22:50:00,
2013-10-08 18:55:00,53.4,27.1,30.01,NNE,14,0.0,0.0,36,0.00,,---,0.00,VWS V14.01,2013-10-08 22:55:00,
2013-10-08 19:00:00,53.1,26.8,30.01,NNE,14,0.0,0.0,36,0.00,,---,0.00,VWS V14.01,2013-10-08 23:00:00,
2013-10-08 19:05:00,52.7,26.5,30.01,NNE,14,0.0,0.0,36,0.00,,---,0.00,VWS V14.01,2013-10-08 23:05:00,
2013-10-08 19:10:00,52.3,26.2,30.01,NNE,14,0.0,0.0,36,0.00,,---,0.00,VWS V14.01,2013-10-08 23:10:00,
2013-10-08 19:15:00,51.8,25.7,30.01,NNE,14,0.0,0.0,36,0.00,,---,0.00,VWS V14.01,2013-10-08 23:15:00,
2013-10-08 19:20:00,51.6,25.6,30.01,NNE,14,0.0,0.0,36,0.00,,---,0.00,VWS V14.01,2013-10-08 23:20:00,
2013-10-08 19:25:00,51.3,25.2,30.01,NNE,14,0.0,0.0,36,0.00,,---,0.00,VWS V14.01,2013-10-08 23:25:00,
2013-10-08 19:30:00,50.9,24.9,30.01,NNE,14,0.0,0.0,36,0.00,,---,0.00,VWS V14.01,2013-10-08 23:30:00,
2013-10-08 19:35:00,50.7,24.8,30.01,NNE,14,0.0,0.0,36,0.00,,---,0.00,VWS V14.01,2013-10-08 23:35:00,
2013-10-08 19:40:00,50.5,24.6,30.01,NNE,14,0.0,0.0,36,0.00,,---,0.00,VWS V14.01,2013-10-08 23:40:00,
2013-10-08 19:45:00,50.2,24.3,30.04,NNE,14,0.0,0.0,36,0.00,,---,0.00,VWS V14.01,2013-10-08 23:45:00,
2013-10-08 19:50:00,50.2,24.3,30.04,NNE,14,0.0,0.0,36,0.00,,---,0.00,VWS V14.01,2013-10-08 23:50:00,
2013-10-08 19:55:00,49.8,24.6,30.04,NNE,14,0.0,0.0,37,0.00,,---,0.00,VWS V14.01,2013-10-08 23:55:00,
2013-10-08 20:00:00,49.6,24.5,30.04,NNE,14,0.0,0.0,37,0.00,,---,0.00,VWS V14.01,2013-10-09 00:00:00,
2013-10-08 20:05:00,49.5,24.3,30.04,NNE,14,0.0,0.0,37,0.00,,---,0.00,VWS V14.01,2013-10-09 00:05:00,
2013-10-08 20:10:00,49.5,24.3,30.04,NNE,14,0.0,0.0,37,0.00,,---,0.00,VWS V14.01,2013-10-09 00:10:00,
2013-10-08 20:15:00,49.3,24.1,30.04,NNE,14,0.0,0.0,37,0.00,,---,0.00,VWS V14.01,2013-10-09 00:15:00,
2013-10-08 20:20:00,49.1,24.0,30.04,NNE,14,0.0,0.0,37,0.00,,---,0.00,VWS V14.01,2013-10-09 00:20:00,
2013-10-08 20:25:00,48.9,23.8,30.04,NNE,14,0.0,0.0,37,0.00,,---,0.00,VWS V14.01,2013-10-09 00:25:00,
2013-10-08 20:30:00,48.7,23.6,30.04,NNE,14,0.0,0.0,37,0.00,,---,0.00,VWS V14.01,2013-10-09 00:30:00,
2013-10-08 20:35:00,48.6,23.5,30.04,NNE,14,0.0,0.0,37,0.00,,---,0.00,VWS V14.01,2013-10-09 00:35:00,
2013-10-08 20:40:00,48.2,23.2,30.04,NNE,14,0.0,0.0,37,0.00,,---,0.00,VWS V14.01,2013-10-09 00:40:00,
2013-10-08 20:45:00,48.0,23.0,30.04,NNE,14,0.0,0.0,37,0.00,,---,0.00,VWS V14.01,2013-10-09 00:45:00,
2013-10-08 20:50:00,47.8,22.9,30.04,NNE,14,0.0,0.0,37,0.00,,---,0.00,VWS V14.01,2013-10-09 00:50:00,
2013-10-08 20:55:00,47.7,22.7,30.04,NNE,14,0.0,0.0,37,0.00,,---,0.00,VWS V14.01,2013-10-09 00:55:00,
2013-10-08 21:00:00,47.5,22.5,30.04,NNE,14,0.0,0.0,37,0.00,,---,0.00,VWS V14.01,2013-10-09 01:00:00,
2013-10-08 21:05:00,47.3,22.4,30.04,NNE,14,0.0,0.0,37,0.00,,---,0.00,VWS V14.01,2013-10-09 01:05:00,
2013-10-08 21:10:00,46.9,22.0,30.04,NNE,14,0.0,0.0,37,0.00,,---,0.00,VWS V14.01,2013-10-09 01:10:00,
2013-10-08 21:15:00,46.8,21.9,30.04,NNE,14,0.0,0.0,37,0.00,,---,0.00,VWS V14.01,2013-10-09 01:15:00,
2013-10-08 21:20:00,46.6,21.7,30.04,NNE,14,0.0,0.0,37,0.00,,---,0.00,VWS V14.01,2013-10-09 01:20:00,
2013-10-08 21:25:00,46.4,21.6,30.04,NNE,14,0.0,0.0,37,0.00,,---,0.00,VWS V14.01,2013-10-09 01:25:00,
2013-10-08 21:30:00,46.2,22.0,30.04,NNE,14,0.0,0.0,38,0.00,,---,0.00,VWS V14.01,2013-10-09 01:30:00,
2013-10-08 21:34:00,46.0,21.9,30.04,NNE,14,0.0,0.0,38,0.00,,---,0.00,VWS V14.01,2013-10-09 01:34:00,
2013-10-08 21:39:00,45.9,21.7,30.04,NNE,14,0.0,0.0,38,0.00,,---,0.00,VWS V14.01,2013-10-09 01:39:00,
2013-10-08 21:44:00,45.7,21.5,30.04,NNE,14,0.0,0.0,38,0.00,,---,0.00,VWS V14.01,2013-10-09 01:44:00,
2013-10-08 21:49:00,45.5,21.4,30.04,NNE,14,0.0,0.0,38,0.00,,---,0.00,VWS V14.01,2013-10-09 01:49:00,
2013-10-08 21:54:00,45.5,21.4,30.04,NNE,14,0.0,0.0,38,0.00,,---,0.00,VWS V14.01,2013-10-09 01:54:00,
2013-10-08 21:59:00,45.3,21.2,30.04,NNE,14,0.0,0.0,38,0.00,,---,0.00,VWS V14.01,2013-10-09 01:59:00,
2013-10-08 22:04:00,45.3,21.2,30.04,NNE,14,0.0,0.0,38,0.00,,---,0.00,VWS V14.01,2013-10-09 02:04:00,
2013-10-08 22:09:00,45.1,21.1,30.04,NNE,14,0.0,0.0,38,0.00,,---,0.00,VWS V14.01,2013-10-09 02:09:00,
2013-10-08 22:14:00,45.1,21.1,30.04,NNE,14,0.0,0.0,38,0.00,,---,0.00,VWS V14.01,2013-10-09 02:14:00,
2013-10-08 22:19:00,44.8,20.7,30.04,NNE,14,0.0,0.0,38,0.00,,---,0.00,VWS V14.01,2013-10-09 02:19:00,
2013-10-08 22:24:00,44.8,20.7,30.04,NNE,14,0.0,0.0,38,0.00,,---,0.00,VWS V14.01,2013-10-09 02:24:00,
2013-10-08 22:29:00,44.6,20.6,30.04,NNE,14,0.0,0.0,38,0.00,,---,0.00,VWS V14.01,2013-10-09 02:29:00,
2013-10-08 22:34:00,44.8,20.7,30.04,NNE,14,0.0,0.0,38,0.00,,---,0.00,VWS V14.01,2013-10-09 02:34:00,
2013-10-08 22:39:00,44.6,20.6,30.04,NNE,14,0.0,0.0,38,0.00,,---,0.00,VWS V14.01,2013-10-09 02:39:00,
2013-10-08 22:44:00,44.6,20.6,30.04,NNE,14,0.0,0.0,38,0.00,,---,0.00,VWS V14.01,2013-10-09 02:44:00,
2013-10-08 22:49:00,44.8,20.7,30.04,NNE,14,0.0,0.0,38,0.00,,---,0.00,VWS V14.01,2013-10-09 02:49:00,
2013-10-08 22:54:00,44.8,20.7,30.04,North,353,0.0,0.0,38,0.00,,---,0.00,VWS V14.01,2013-10-09 02:54:00,
2013-10-08 22:59:00,44.8,20.7,30.04,North,357,0.0,0.0,38,0.00,,---,0.00,VWS V14.01,2013-10-09 02:59:00,
2013-10-08 23:04:00,45.0,20.9,30.04,North,0,0.0,0.0,38,0.00,,---,0.00,VWS V14.01,2013-10-09 03:04:00,
2013-10-08 23:09:00,45.1,21.1,30.04,North,0,0.0,0.0,38,0.00,,---,0.00,VWS V14.01,2013-10-09 03:09:00,
2013-10-08 23:14:00,45.5,21.4,30.04,West,273,0.0,0.0,38,0.00,,---,0.00,VWS V14.01,2013-10-09 03:14:00,
2013-10-08 23:19:00,45.9,21.7,30.04,West,273,0.0,0.0,38,0.00,,---,0.00,VWS V14.01,2013-10-09 03:19:00,
2013-10-08 23:24:00,46.4,21.6,30.04,West,266,0.0,0.0,37,0.00,,---,0.00,VWS V14.01,2013-10-09 03:24:00,
2013-10-08 23:29:00,46.8,21.9,30.04,West,266,0.0,0.0,37,0.00,,---,0.00,VWS V14.01,2013-10-09 03:29:00,
2013-10-08 23:34:00,47.1,22.2,30.04,NW,321,0.0,0.0,37,0.00,,---,0.00,VWS V14.01,2013-10-09 03:34:00,
2013-10-08 23:39:00,47.1,22.2,30.04,NW,320,0.0,0.0,37,0.00,,---,0.00,VWS V14.01,2013-10-09 03:39:00,
2013-10-08 23:44:00,47.1,22.2,30.04,NW,320,0.0,0.0,37,0.00,,---,0.00,VWS V14.01,2013-10-09 03:44:00,
2013-10-08 23:49:00,47.1,22.2,30.04,NW,310,0.0,0.0,37,0.00,,---,0.00,VWS V14.01,2013-10-09 03:49:00,
2013-10-08 23:54:00,47.1,22.2,30.04,NW,304,0.0,0.0,37,0.00,,---,0.00,VWS V14.01,2013-10-09 03:54:00,
2013-10-08 23:59:00,47.1,22.2,30.04,North,5,0.0,0.0,37,0.00,,---,0.00,VWS V14.01,2013-10-09 03:59:00,